15 daagse weersverwachting Braunschweig (DE)

  • Overzicht
  • Per uur
  • 15 dagen
  • Extra
  • Vergelijk
  • Kaarten
  • Dagkaart
  • Meer »
  • Info
  • Statistieken
  • Directe link
    Temp 6h Neerslag Wind  
 07:52     16:17    Daglengte: 8:25 Vandaag
13:00
10°
4.1 mm
4
19:00
10°
20.5 mm
3
 07:53     16:16    Daglengte: 8:23 Morgen
01:00
25.5 mm
6
07:00
4.9 mm
7
13:00
11°
12.7 mm
7
19:00
 
7
 07:55     16:15    Daglengte: 8:20 Donderdag 23 Nov
01:00
 
7
07:00
 
8
13:00
13°
12.7 mm
9
19:00
11°
 
8
 07:57     16:14    Daglengte: 8:17 Vrijdag 24 Nov
01:00
10°
 
5
07:00
11°
4.8 mm
8
Locatie info
Region: Niedersachsen
Latitude: 52.2655°N
Longitude: 10.5274°E
72 masl
Postcode: 38100
Temp/Neerslag /Baro Onweer/Dauwpunt
    Temp Baro 1h Neerslag Dauwpunt Wind UV Bewolking  
 07:52     16:17    Daglengte: 8:25 Vandaag
13:00
10°
Voelt als: 8.0°
1008.4 hPa 2.2 mm
21%
8.0°
4
Windvlaag: 4.1 km/h
19%
14:00
10°
Voelt als: 7.8°
1008.4 hPa 2.1 mm
21%
8.2°
3
Windvlaag: 4 km/h
19%
15:00
10°
Voelt als: 8.1°
1008.3 hPa 2.6 mm
21%
8.4°
3
Windvlaag: 3.6 km/h
19%
16:00
Voelt als: 8.1°
1008.0 hPa 3.1 mm
21%
8.6°
3
Windvlaag: 3.9 km/h
19%
17:00
10°
Voelt als: 8.1°
1007.7 hPa 3.5 mm
21%
8.8°
3
Windvlaag: 4.1 km/h
19%
18:00
10°
Voelt als: 8.1°
1007.5 hPa 4.4 mm
21%
8.9°
3
Windvlaag: 4.1 km/h
19%
19:00
10°
Voelt als: 8.0°
1007.2 hPa 4.9 mm
21%
8.8°
3
Windvlaag: 5.2 km/h
19%
20:00
10°
1007.1 hPa 5.0 mm
21%
9.0°
4
Windvlaag: 6.1 km/h
19%
21:00
10°
1006.7 hPa 5.1 mm
21%
9.3°
5
Windvlaag: 6.8 km/h
19%
22:00
10°
Voelt als: 7.2°
1006.7 hPa 5.1 mm
21%
8.7°
6
Windvlaag: 7 km/h
19%
23:00
10°
Voelt als: 6.9°
1006.7 hPa 5.2 mm
21%
8.2°
6
Windvlaag: 7.2 km/h
19%
 07:53     16:16    Daglengte: 8:23 Morgen
00:00
10°
Voelt als: 6.7°
1006.6 hPa 5.1 mm
21%
7.7°
6
Windvlaag: 7.4 km/h
19%
01:00
Voelt als: 6.3°
1006.6 hPa   6.9°
6
Windvlaag: 7.8 km/h
19%
02:00
Voelt als: 6.3°
1006.2 hPa
21%
6.5°
6
Windvlaag: 8.7 km/h
19%
03:00
Voelt als: 6.2°
1005.6 hPa
21%
6.2°
6
Windvlaag: 9 km/h
19%
04:00
Voelt als: 6.1°
1005.1 hPa
21%
6.4°
7
Windvlaag: 8.4 km/h
19%
05:00
Voelt als: 5.8°
1004.6 hPa 4.9 mm
21%
6.7°
7
Windvlaag: 9.9 km/h
19%
06:00
Voelt als: 5.6°
1004.4 hPa
21%
7.0°
7
Windvlaag: 9.9 km/h
19%
07:00
Voelt als: 5.6°
1004.3 hPa
21%
6.8°
7
Windvlaag: 10.5 km/h
19%
08:00
Voelt als: 5.4°
1004.3 hPa 12.7 mm
21%
6.8°
8
Windvlaag: 11.4 km/h
19%
09:00
Voelt als: 5.7°
1004.6 hPa
21%
6.9°
8
Windvlaag: 11.3 km/h
19%
10:00
10°
Voelt als: 6.2°
1004.7 hPa
21%
7.4°
8
Windvlaag: 10.8 km/h
19%
11:00
10°
1005.1 hPa
21%
7.8°
8
Windvlaag: 11.3 km/h
19%
12:00
11°
1005.4 hPa
21%
7.9°
8
Windvlaag: 10.9 km/h
19%
13:00
11°
1005.5 hPa
21%
7.8°
7
Windvlaag: 10.6 km/h
19%
14:00
11°
1005.4 hPa
21%
7.7°
7
Windvlaag: 10 km/h
19%
15:00
11°
1005.4 hPa
21%
7.6°
6
Windvlaag: 8.5 km/h
19%
16:00
10°
1005.3 hPa
21%
7.1°
5
Windvlaag: 6.8 km/h
19%
17:00
10°
Voelt als: 7.3°
1005.5 hPa
21%
6.5°
6
Windvlaag: 7.9 km/h
5%
18:00
10°
Voelt als: 6.9°
1005.5 hPa
21%
5.9°
6
Windvlaag: 9.1 km/h
5%
19:00
Voelt als: 6.4°
1005.4 hPa
21%
5.3°
7
Windvlaag: 9.3 km/h
5%
20:00
Voelt als: 5.7°
1005.3 hPa
21%
5.0°
7
Windvlaag: 10.1 km/h
9%
21:00
Voelt als: 5.4°
1005.2 hPa
21%
4.3°
7
Windvlaag: 10.1 km/h
9%
22:00
Voelt als: 5.3°
1005.2 hPa
21%
4.2°
6
Windvlaag: 10.1 km/h
8%
23:00
Voelt als: 5.2°
1004.9 hPa
21%
3.9°
6
Windvlaag: 10.5 km/h
6%
 07:55     16:15    Daglengte: 8:20 Donderdag 23 Nov
00:00
Voelt als: 5.3°
1004.6 hPa
21%
3.0°
7
Windvlaag: 11.1 km/h
3%
01:00
Voelt als: 5.6°
1004.1 hPa   2.4°
7
Windvlaag: 11.4 km/h
1%
02:00
Voelt als: 5.5°
1003.7 hPa
21%
1.7°
7
Windvlaag: 11.7 km/h
10%
03:00
Voelt als: 5.1°
1003.3 hPa
21%
1.3°
7
Windvlaag: 12.7 km/h
18%
04:00
Voelt als: 4.4°
1003.2 hPa
100%
1.5°
8
Windvlaag: 13.8 km/h
80%
05:00
Voelt als: 4.5°
1002.8 hPa
100%
2.3°
8
Windvlaag: 14.4 km/h
80%
06:00
Voelt als: 4.6°
1002.8 hPa
100%
3.0°
8
Windvlaag: 14.2 km/h
80%
07:00
Voelt als: 4.1°
1002.7 hPa
100%
3.4°
8
Windvlaag: 14.3 km/h
80%
08:00
Voelt als: 4.6°
1002.8 hPa 12.7 mm
100%
3.5°
8
Windvlaag: 14.2 km/h
80%
09:00
Voelt als: 5.3°
1003.1 hPa
100%
3.7°
8
Windvlaag: 14.2 km/h
80%
10:00
10°
1003.2 hPa
100%
4.2°
9
Windvlaag: 14.9 km/h
78%
11:00
11°
1003.4 hPa
100%
4.7°
9
Windvlaag: 14.7 km/h
22%
12:00
12°
1003.4 hPa
100%
5.4°
9
Windvlaag: 14.3 km/h
0%
13:00
13°
1003.8 hPa
100%
5.5°
9
Windvlaag: 13.2 km/h
2%
14:00
13°
1004.2 hPa
100%
6.1°
9
Windvlaag: 13.5 km/h
0%
15:00
13°
1004.7 hPa
100%
6.1°
9
Windvlaag: 12.8 km/h
16%
16:00
12°
1005.2 hPa
100%
6.9°
8
Windvlaag: 12.6 km/h
0%
17:00
12°
1006.2 hPa
100%
7.3°
8
Windvlaag: 12.7 km/h
21%
18:00
12°
1006.9 hPa
100%
7.3°
8
Windvlaag: 13.1 km/h
34%
19:00
11°
1007.6 hPa
100%
7.6°
8
Windvlaag: 12.9 km/h
54%
20:00
11°
1008.8 hPa
100%
7.6°
8
Windvlaag: 10.9 km/h
62%
21:00
11°
1009.9 hPa
100%
8.4°
6
Windvlaag: 8.6 km/h
0%
22:00
10°
1010.6 hPa
100%
8.2°
6
Windvlaag: 8.5 km/h
59%
23:00
10°
1011.0 hPa
100%
8.4°
6
Windvlaag: 8.9 km/h
14%
 07:57     16:14    Daglengte: 8:17 Vrijdag 24 Nov
00:00
10°
Voelt als: 7.4°
1011.4 hPa
100%
8.1°
5
Windvlaag: 8.5 km/h
33%
01:00
10°
Voelt als: 7.0°
1011.4 hPa   7.5°
5
Windvlaag: 8.5 km/h
35%
02:00
Voelt als: 6.8°
1011.4 hPa
100%
7.5°
5
Windvlaag: 9.2 km/h
26%
03:00
Voelt als: 6.3°
1011.1 hPa
100%
7.3°
5
Windvlaag: 9.8 km/h
27%
04:00
Voelt als: 6.3°
1010.4 hPa
100%
7.1°
6
Windvlaag: 11 km/h
26%
05:00
10°
Voelt als: 6.5°
1010.2 hPa 4.8 mm
100%
7.5°
7
Windvlaag: 12.8 km/h
52%
06:00
10°
1010.1 hPa
100%
7.9°
8
Windvlaag: 13.1 km/h
58%
07:00
11°
1010.2 hPa
100%
8.1°
8
Windvlaag: 13.1 km/h
60%
08:00
11°
1009.4 hPa 14.1 mm
100%
8.6°
7
Windvlaag: 15.1 km/h
0%
09:00
12°
1009.7 hPa 14.1 mm
100%
8.5°
7
Windvlaag: 13.9 km/h
0%
10:00
13°
1010.0 hPa 14.1 mm
100%
8.4°
8
Windvlaag: 14.1 km/h
0%
11:00
14°
1009.8 hPa 14.1 mm
100%
8.5°
9
Windvlaag: 16.1 km/h
0%
12:00
14°
1009.4 hPa 14.1 mm
100%
8.5°
8
Windvlaag: 15.8 km/h
0%
Temp/Neerslag /Baro Onweer/Dauwpunt
    Temp Baro Neerslag Dauwpunt Wind Bewolking  
 07:52     16:17    Daglengte: 8:25 Vandaag
13:00
10°
Voelt als: 8.0°
1008.4 hPa 4.1 mm 8.0°
4
19%
16:00
Voelt als: 8.1°
1008.0 hPa 7.8 mm 8.6°
3
19%
19:00
10°
Voelt als: 8.0°
1007.2 hPa 12.7 mm 8.8°
3
19%
22:00
10°
Voelt als: 7.2°
1006.7 hPa 15.1 mm 8.7°
6
19%
 07:53     16:16    Daglengte: 8:23 Morgen
01:00
Voelt als: 6.3°
1006.6 hPa 10.4 mm 6.9°
6
19%
04:00
Voelt als: 6.1°
1005.1 hPa   6.4°
7
19%
07:00
Voelt als: 5.6°
1004.3 hPa 4.9 mm 6.8°
7
19%
10:00
10°
Voelt als: 6.2°
1004.7 hPa 12.7 mm 7.4°
8
19%
13:00
11°
1005.5 hPa   7.8°
7
19%
16:00
10°
1005.3 hPa   7.1°
5
19%
19:00
Voelt als: 6.4°
1005.4 hPa   5.3°
7
5%
22:00
Voelt als: 5.3°
1005.2 hPa   4.2°
6
8%
 07:55     16:15    Daglengte: 8:20 Donderdag 23 Nov
01:00
Voelt als: 5.6°
1004.1 hPa   2.4°
7
1%
04:00
Voelt als: 4.4°
1003.2 hPa   1.5°
8
80%
07:00
Voelt als: 4.1°
1002.7 hPa   3.4°
8
80%
10:00
10°
1003.2 hPa 12.7 mm 4.2°
9
78%
13:00
13°
1003.8 hPa   5.5°
9
2%
16:00
12°
1005.2 hPa   6.9°
8
0%
19:00
11°
1007.6 hPa   7.6°
8
54%
22:00
10°
1010.6 hPa   8.2°
6
59%
 07:57     16:14    Daglengte: 8:17 Vrijdag 24 Nov
01:00
10°
Voelt als: 7.0°
1011.4 hPa   7.5°
5
35%
04:00
Voelt als: 6.3°
1010.4 hPa   7.1°
6
26%
07:00
11°
1010.2 hPa 4.8 mm 8.1°
8
60%
10:00
13°
1010.0 hPa 42.4 mm 8.4°
8
0%
13:00
15°
1008.9 hPa 42.4 mm 8.8°
8
0% warningclass
16:00
13°
1010.7 hPa 0.1 mm 6.2°
7
1%
19:00
12°
1011.3 hPa 0.2 mm 7.5°
7
1%
22:00
12°
1011.9 hPa   7.8°
6
1%
 07:58     16:13    Daglengte: 8:15 Zaterdag 25 Nov
01:00
12°
1012.0 hPa   7.8°
6
1%
04:00
11°
1010.9 hPa   8.0°
5
1%
07:00
11°
1008.5 hPa   5.9°
6
1%
10:00
13°
1007.1 hPa   6.8°
8
1%
13:00
15°
1003.6 hPa 0.2 mm 6.2°
7
1%
16:00
13°
1003.5 hPa 0.3 mm 7.6°
10
1%
19:00
10°
Voelt als: 5.4°
1005.3 hPa 0.7 mm 0.9°
12
1%
22:00
Voelt als: 1.4°
1008.9 hPa   -1.2°
14
0%
 08:00     16:12    Daglengte: 8:12 Zondag 26 Nov
01:00
Voelt als: 0.8°
1012.8 hPa   -0.6°
12
0%
04:00
Voelt als: -0.5°
1015.0 hPa   -1.7°
9
0%
07:00
Voelt als: -1.2°
1017.2 hPa   -1.9°
8
0%
10:00
Voelt als: -0.6°
1019.9 hPa   -2.5°
10
0%
13:00
Voelt als: 0.2°
1021.4 hPa   -2.0°
11
0%
16:00
Voelt als: 0.6°
1023.3 hPa   -0.8°
8
1%
19:00
Voelt als: -1.2°
1025.2 hPa   -1.1°
8
0%
22:00
Voelt als: -1.8°
1026.1 hPa   -1.7°
8
0%
 08:01     16:11    Daglengte: 8:10 Maandag 27 Nov
01:00
Voelt als: -2.5°
1026.2 hPa   -2.1°
8
0%
04:00
Voelt als: -2.9°
1026.0 hPa   -2.2°
7
0%
07:00
Voelt als: -3.1°
1026.5 hPa   -1.9°
6
0%
10:00
Voelt als: -1.3°
1026.4 hPa   -1.4°
6
1%
13:00
Voelt als: 2.4°
1024.8 hPa   -0.3°
5
1%
16:00
Voelt als: 1.3°
1023.0 hPa   -0.3°
3
1%
19:00
Voelt als: -0.3°
1021.4 hPa   -1.7°
2
1%
22:00
Voelt als: -1.9°
1018.8 hPa   -2.8°
3
1%
 08:03     16:10    Daglengte: 8:07 Dinsdag 28 Nov
01:00
Voelt als: -3.2°
1015.2 hPa   -4.4°
4
1%
04:00
Voelt als: -3.4°
1011.6 hPa   -6.5°
4
1%
07:00
Voelt als: -2.9°
1009.0 hPa   -5.2°
3
1%
10:00
Voelt als: 2.0°
1006.6 hPa   -1.2°
4
1%
13:00
Voelt als: 7.3°
1003.6 hPa   2.0°
4
1%
19:00
Voelt als: 4.5°
1000.4 hPa   1.4°
3
1%
 08:04     16:10    Daglengte: 8:06 Woensdag 29 Nov
01:00
Voelt als: 3.8°
999.0 hPa 0.4 mm 0.3°
3
1%
07:00
Voelt als: 3.4°
998.7 hPa 0.4 mm 4.2°
4
1%
13:00
Voelt als: 5.1°
999.9 hPa   2.7°
5
1%
19:00
Voelt als: 2.7°
1000.3 hPa   1.8°
2
1%
 08:06     16:09    Daglengte: 8:03 Donderdag 30 Nov
01:00
Voelt als: 1.5°
999.8 hPa   2.0°
3
1%
07:00
Voelt als: 0.6°
998.6 hPa   1.5°
3
1%
13:00
Voelt als: 7.9°
997.6 hPa   2.0°
2
1%
19:00
Voelt als: 1.9°
998.5 hPa   1.8°
2
0%
 08:07     16:08    Daglengte: 8:01 Vrijdag 01 Dec
01:00
Voelt als: 0.5°
999.6 hPa   0.4°
2
1%
07:00
Voelt als: 0.7°
1011.8 hPa 0.8 mm -0.1°
1
0%
13:00
Voelt als: 1.3°
1011.4 hPa 1.1 mm 0.5°
2
0%
19:00
Voelt als: -0.1°
1011.3 hPa 0.9 mm 0.3°
2
0%
 08:09     16:08    Daglengte: 7:59 Zaterdag 02 Dec
01:00
Voelt als: -1.5°
1010.7 hPa 1.2 mm -0.0°
3
0%
07:00
Voelt als: -2.3°
1011.0 hPa 0.8 mm -1.1°
3
0%
13:00
Voelt als: -0.4°
1010.5 hPa 0.6 mm -0.0°
4
0%
19:00
Voelt als: -1.4°
1010.8 hPa 1.0 mm 0.1°
3
0%
 08:10     16:07    Daglengte: 7:57 Zondag 03 Dec
01:00
Voelt als: -1.8°
1011.3 hPa 1.0 mm -0.5°
3
0%
07:00
Voelt als: -1.8°
1011.5 hPa 0.8 mm -0.7°
2
0%
13:00
Voelt als: 0.1°
1011.2 hPa 0.7 mm -0.1°
3
0%
19:00
Voelt als: -1.6°
1011.1 hPa 0.7 mm -0.3°
3
0%
 08:11     16:07    Daglengte: 7:56 Maandag 04 Dec
01:00
Voelt als: -2.6°
1011.3 hPa 0.4 mm -0.6°
3
0%
07:00
Voelt als: -3.2°
1011.2 hPa 0.3 mm -0.9°
3
0%
13:00
Voelt als: -1.0°
1011.3 hPa 0.3 mm -0.4°
3
0%
19:00
Voelt als: -2.2°
1011.3 hPa 0.4 mm -0.9°
3
0%
 08:13     16:06    Daglengte: 7:53 Dinsdag 05 Dec
01:00
Voelt als: -2.5°
1011.1 hPa 0.6 mm -1.0°
3
0%
07:00
Voelt als: -2.6°
1010.8 hPa 0.7 mm -0.9°
3
0%
13:00
Voelt als: -1.2°
1011.6 hPa 0.5 mm -0.4°
4
0%
19:00
Voelt als: -2.2°
1012.7 hPa 0.8 mm -1.0°
3
0%
 08:14     16:06    Daglengte: 7:52 Woensdag 06 Dec
01:00
Voelt als: -3.1°
1013.5 hPa 0.4 mm -1.3°
3
0%
07:00
Voelt als: -3.4°
1013.8 hPa 0.6 mm -1.6°
3
0%
  CAPE Lifted Index Hail Supercell Tornado SRH 3km CL BTM PRES CL TOP PRES Swiss DWD icon SMHI TS
 07:52     16:17    Daglengte: 8:25 Vandaag
13:00 29 J/kg 6.2 K 0 % 0 % 0 % 0 m²/s² 0 0 6.65
14:00 26 J/kg 6.0 K 0 % 0 % 0 % 0 m²/s² 0 0 6.21
15:00 26 J/kg 6.2 K 0 % 0 % 0 % 0 m²/s² 0 0 6.41
16:00 25 J/kg 5.9 K 0 % 0 % 0 % 0 m²/s² 0 0 6.11
17:00 13 J/kg 5.7 K 0 % 0 % 0 % 0 m²/s² 0 0 5.88
18:00 0 J/kg 4.9 K 0 % 0 % 0 % 0 m²/s² 0 0 5.2
19:00 0 J/kg 3.7 K 0 % 0 % 0 % 0 m²/s² 0 0 4.21
20:00 0 J/kg 3.6 K 0 % 0 % 0 % 0 m²/s² 0 0 4.5
21:00 0 J/kg 3.5 K 0 % 0 % 0 % 0 m²/s² 0 0 4.64
22:00 1 J/kg 3.3 K 0 % 0 % 0 % 0 m²/s² 0 0 4.71
23:00 2 J/kg 4.0 K 0 % 0 % 0 % 0 m²/s² 0 0 6.49
 07:53     16:16    Daglengte: 8:23 Morgen
00:00 3 J/kg 5.3 K 0 % 0 % 0 % 0 m²/s² 0 0 9.14
01:00 6 J/kg 8.8 K 0 % 0 % 0 % 0 m²/s² 0 0 11.59
02:00 0 J/kg 8.9 K 0 % 0 % 0 % 0 m²/s² 0 0 10.31
03:00 0 J/kg 8.5 K 0 % 0 % 0 % 0 m²/s² 0 0 10.9
04:00 0 J/kg 8.2 K 0 % 0 % 0 % 0 m²/s² 0 0 9.85
05:00 0 J/kg 7.6 K 0 % 0 % 0 % 0 m²/s² 0 0 12.58
06:00 0 J/kg 7.5 K 0 % 0 % 0 % 0 m²/s² 0 0 12.36
07:00 0 J/kg 7.8 K 0 % 0 % 0 % 0 m²/s² 0 0 12.93
08:00 0 J/kg 4.5 K 0 % 0 % 0 % 0 m²/s² 0 0 10.71
09:00 0 J/kg 4.3 K 0 % 0 % 0 % 0 m²/s² 0 0 10.9
10:00 0 J/kg 5.1 K 0 % 0 % 0 % 0 m²/s² 0 0 12.12
11:00 3 J/kg 6.8 K 0 % 0 % 0 % 0 m²/s² 0 0 13.82
12:00 3 J/kg 7.5 K 0 % 0 % 0 % 0 m²/s² 0 0 13.71
13:00 0 J/kg 7.9 K 0 % 0 % 0 % 0 m²/s² 0 0 13.75
14:00 0 J/kg 7.9 K 0 % 0 % 0 % 0 m²/s² 0 0 13.6
15:00 0 J/kg 8.3 K 0 % 0 % 0 % 0 m²/s² 0 0 13.85
16:00 0 J/kg 8.2 K 0 % 0 % 0 % 0 m²/s² 0 0 14.26
17:00 0 J/kg 9.1 K 0 % 0 % 0 % 0 m²/s² 0 0 15.73
18:00 0 J/kg 10.1 K 0 % 0 % 0 % 0 m²/s² 0 0 16.94
19:00 0 J/kg 10.4 K 0 % 0 % 0 % 0 m²/s² 0 0 17.72
20:00 0 J/kg 11.0 K 0 % 0 % 0 % 0 m²/s² 0 0 18.05
21:00 0 J/kg 12.0 K 0 % 0 % 0 % 0 m²/s² 0 0 18.84
22:00 0 J/kg 12.0 K 0 % 0 % 0 % 0 m²/s² 0 0 19.32
23:00 0 J/kg 11.4 K 0 % 0 % 0 % 0 m²/s² 0 0 19.26
 07:55     16:15    Daglengte: 8:20 Donderdag 23 Nov
00:00 0 J/kg 10.9 K 0 % 0 % 0 % 0 m²/s² 0 0 18.22
01:00 0 J/kg 9.9 K 0 % 0 % 0 % 0 m²/s² 0 0 16.74
02:00 0 J/kg 9.0 K 0 % 0 % 0 % 0 m²/s² 0 0 15.24
03:00 0 J/kg 8.5 K 0 % 0 % 0 % 0 m²/s² 0 0 14.56
04:00 0 J/kg 8.2 K 0 % 0 % 0 % 0 m²/s² 0 0 13.9
05:00 0 J/kg 8.4 K 0 % 0 % 0 % 0 m²/s² 0 0 13.8
06:00 0 J/kg 5.8 K 0 % 0 % 0 % 0 m²/s² 0 0 10.9
07:00 0 J/kg 3.7 K 0 % 0 % 0 % 0 m²/s² 0 0 7.24
08:00 0 J/kg 1.6 K 0 % 0 % 0 % 0 m²/s² 0 0 2.38
09:00 0 J/kg 1.5 K 0 % 0 % 0 % 0 m²/s² 0 0 2.46
10:00 0 J/kg 1.3 K 0 % 0 % 0 % 0 m²/s² 0 0 3.28
11:00 0 J/kg 0.8 K 0 % 0 % 0 % 0 m²/s² 0 0 3.98
12:00 0 J/kg 2.2 K 0 % 0 % 0 % 0 m²/s² 0 0 6.19
13:00 0 J/kg 3.0 K 0 % 0 % 0 % 0 m²/s² 0 0 7.32
14:00 0 J/kg 3.7 K 0 % 0 % 0 % 0 m²/s² 0 0 8.14
15:00 0 J/kg 3.9 K 0 % 0 % 0 % 0 m²/s² 0 0 10.86
16:00 0 J/kg 3.7 K 0 % 0 % 0 % 0 m²/s² 0 0 7.72
17:00 0 J/kg 3.1 K 0 % 0 % 0 % 0 m²/s² 0 0 7.21
18:00 0 J/kg 2.6 K 0 % 0 % 0 % 0 m²/s² 0 0 8.09
19:00 0 J/kg 2.8 K 0 % 0 % 0 % 0 m²/s² 0 0 8.62
20:00 0 J/kg 2.0 K 0 % 0 % 0 % 0 m²/s² 0 0 8
21:00 0 J/kg 2.1 K 0 % 0 % 0 % 0 m²/s² 0 0 7.89
22:00 0 J/kg 1.8 K 0 % 0 % 0 % 0 m²/s² 0 0 6.87
23:00 0 J/kg 1.8 K 0 % 0 % 0 % 0 m²/s² 0 0 6.15
 07:57     16:14    Daglengte: 8:17 Vrijdag 24 Nov
00:00 0 J/kg 1.1 K 0 % 0 % 0 % 0 m²/s² 0 0 4.91
01:00 0 J/kg 1.0 K 0 % 0 % 0 % 0 m²/s² 0 0 4.27
02:00 0 J/kg 1.4 K 0 % 0 % 0 % 0 m²/s² 0 0 4.16
03:00 0 J/kg 1.2 K 0 % 0 % 0 % 0 m²/s² 0 0 4.29
04:00 0 J/kg 2.2 K 0 % 0 % 0 % 0 m²/s² 0 0 5.05
05:00 0 J/kg 2.6 K 0 % 0 % 0 % 0 m²/s² 0 0 4.43
06:00 0 J/kg 1.9 K 0 % 0 % 0 % 0 m²/s² 0 0 3.61
07:00 0 J/kg 1.6 K 0 % 0 % 0 % 0 m²/s² 0 0 2.98
08:00 0 J/kg 1.6 K 0 % 0 % 0 % 0 m²/s² 0 0 3.49
09:00 0 J/kg 1.7 K 0 % 0 % 0 % 0 m²/s² 0 0 3.65
10:00 0 J/kg 2.1 K 0 % 0 % 0 % 0 m²/s² 0 0 3.87
11:00 0 J/kg 2.5 K 0 % 0 % 0 % 0 m²/s² 0 0 3.7
12:00 0 J/kg 3.2 K 0 % 0 % 0 % 0 m²/s² 0 0 4.25
Temp Baro Wind Neerslag
  EWN Forecast EWN WRFDA DWD ICON FMI HIRLAM MET Norway GFSWXSIM
 07:52     16:17    Daglengte: 8:25 Vandaag
13:00 9.9° 1008.4 hPa 3.7 m/s 4.1 mm 10.5° 1007.7 hPa 4.3 m/s 10.7 mm 10.1° 1008.4 hPa 2.1 m/s 0.0 mm 10.2° 1009.4 hPa 5.8 m/s
16:00 9.5° 1008.0 hPa 2.6 m/s 7.8 mm 9.9° 1006.9 hPa 2.8 m/s 19.3 mm 9.6° 1007.8 hPa 1.3 m/s 0.0 mm 9.2° 1008.5 hPa 2.6 m/s
19:00 9.8° 1007.2 hPa 3.5 m/s 12.7 mm 10.0° 1006.3 hPa 4.0 m/s 32.2 mm 10.5° 1006.8 hPa 3.0 m/s 0.0 mm 9.7° 1008.5 hPa 3.2 m/s
22:00 9.9° 1006.7 hPa 5.8 m/s 15.1 mm 9.9° 1006.2 hPa 5.7 m/s 41.0 mm 11.1° 1006.2 hPa 7.0 m/s 0.0 mm 10.5° 1008.7 hPa 8.0 m/s
 07:53     16:16    Daglengte: 8:23 Morgen
01:00 9.4° 1006.6 hPa 6.4 m/s 10.4 mm 9.2° 1006.3 hPa 6.4 m/s 28.2 mm 10.9° 1005.8 hPa 7.1 m/s 0.0 mm 9.4° 1008.9 hPa 6.9 m/s
04:00 9.2° 1005.1 hPa 6.6 m/s 0.0 mm 9.4° 1004.8 hPa 6.6 m/s 42.3 mm 10.3° 1003.9 hPa 7.0 m/s 0.0 mm 8.6° 1008.1 hPa 6.4 m/s
07:00 9.0° 1004.3 hPa 7.3 m/s 4.9 mm 9.2° 1003.9 hPa 7.2 m/s 42.3 mm 10.2° 1003.1 hPa 7.5 m/s 0.0 mm 8.4° 1007.6 hPa 6.8 m/s
10:00 9.7° 1004.7 hPa 7.9 m/s 12.7 mm 10.0° 1004.3 hPa 8.9 m/s 42.3 mm 10.8° 1003.5 hPa 7.8 m/s 0.0 mm 9.2° 1008.3 hPa 7.5 m/s
13:00 10.6° 1005.5 hPa 7.3 m/s 0.0 mm 11.4° 1005.2 hPa 7.2 m/s 42.3 mm 11.2° 1004.3 hPa 7.6 m/s 0.0 mm 10.6° 1008.5 hPa 6.8 m/s
16:00 10.2° 1005.3 hPa 5.3 m/s 0.0 mm 10.7° 1004.8 hPa 3.4 m/s 42.3 mm 11.4° 1004.7 hPa 6.5 m/s 0.0 mm 9.1° 1008.7 hPa 3.5 m/s
19:00 9.5° 1005.4 hPa 6.6 m/s 0.0 mm 9.6° 1004.2 hPa 7.5 m/s 42.3 mm 11.9° 1005.1 hPa 6.5 m/s 0.0 mm 7.8° 1008.8 hPa 4.7 m/s
22:00 8.5° 1005.2 hPa 6.2 m/s 0.0 mm 8.8° 1003.8 hPa 7.0 m/s 42.3 mm 9.8° 1005.1 hPa 6.3 m/s 0.0 mm 7.3° 1008.3 hPa 4.9 m/s
 07:55     16:15    Daglengte: 8:20 Donderdag 23 Nov
01:00 9.0° 1004.1 hPa 6.9 m/s 0.0 mm 9.3° 1002.6 hPa 7.7 m/s 28.2 mm 9.2° 1004.0 hPa 6.8 m/s 0.0 mm 7.6° 1007.5 hPa 5.8 m/s
04:00 8.3° 1003.2 hPa 8.1 m/s 0.0 mm 9.0° 1001.3 hPa 7.7 m/s 42.3 mm 8.4° 1006.1 hPa 6.3 m/s
07:00 8.1° 1002.7 hPa 8.4 m/s 0.0 mm 8.8° 1001.3 hPa 8.3 m/s 42.3 mm 8.3° 1005.8 hPa 7.6 m/s
10:00 10.0° 1003.2 hPa 9.2 m/s 12.7 mm 12.0° 1002.0 hPa 11.7 m/s 42.3 mm 10.7° 1007.0 hPa 8.4 m/s
13:00 12.6° 1003.8 hPa 9.2 m/s 0.0 mm 15.2° 1003.5 hPa 10.1 m/s 42.3 mm 14.5° 1007.7 hPa 8.3 m/s
16:00 12.1° 1005.2 hPa 8.2 m/s 0.0 mm 13.3° 1005.4 hPa 5.9 m/s 42.3 mm 12.4° 1009.4 hPa 5.2 m/s
19:00 11.4° 1007.6 hPa 7.7 m/s 0.0 mm 12.0° 1006.8 hPa 7.1 m/s 42.3 mm 11.3° 1010.9 hPa 6.0 m/s
22:00 10.4° 1010.6 hPa 5.7 m/s 0.0 mm 10.9° 1009.1 hPa 5.6 m/s 42.4 mm 11.0° 1012.3 hPa 5.9 m/s
 07:57     16:14    Daglengte: 8:17 Vrijdag 24 Nov
01:00 9.6° 1011.4 hPa 5.2 m/s 0.0 mm 11.0° 1009.3 hPa 6.7 m/s 28.3 mm 10.4° 1012.7 hPa 5.5 m/s
04:00 9.3° 1010.4 hPa 6.2 m/s 0.0 mm 10.8° 1009.3 hPa 7.6 m/s 42.4 mm 10.7° 1012.6 hPa 6.4 m/s
07:00 10.8° 1010.2 hPa 7.6 m/s 4.8 mm 11.3° 1009.6 hPa 7.8 m/s 42.4 mm 10.5° 1012.5 hPa 6.0 m/s
10:00 13.3° 1010.0 hPa 8.1 m/s 42.4 mm 13.3° 1010.0 hPa 8.1 m/s 42.4 mm 12.7° 1012.3 hPa 7.1 m/s
13:00 15.0° 1008.9 hPa 8.1 m/s 42.4 mm 15.0° 1008.9 hPa 8.1 m/s 42.4 mm 15.1° 1010.9 hPa 8.4 m/s
16:00 13.0° 1010.7 hPa 7.1 m/s 0.1 mm 13.0° 1010.7 hPa 7.1 m/s 0.1 mm
19:00 11.7° 1011.3 hPa 6.6 m/s 0.2 mm 11.7° 1011.3 hPa 6.6 m/s 0.2 mm
22:00 11.8° 1011.9 hPa 5.6 m/s 0.0 mm 11.8° 1011.9 hPa 5.6 m/s 0.0 mm
 07:58     16:13    Daglengte: 8:15 Zaterdag 25 Nov
01:00 11.5° 1012.0 hPa 5.5 m/s 0.0 mm 11.5° 1012.0 hPa 5.5 m/s 0.0 mm
04:00 11.1° 1010.9 hPa 4.6 m/s 0.0 mm 11.1° 1010.9 hPa 4.6 m/s 0.0 mm
07:00 10.9° 1008.5 hPa 6.0 m/s 0.0 mm 10.9° 1008.5 hPa 6.0 m/s 0.0 mm
10:00 13.4° 1007.1 hPa 7.9 m/s 0.0 mm 13.4° 1007.1 hPa 7.9 m/s 0.0 mm
13:00 15.2° 1003.6 hPa 6.9 m/s 0.2 mm 15.2° 1003.6 hPa 6.9 m/s 0.2 mm
16:00 13.1° 1003.5 hPa 10.4 m/s 0.3 mm 13.1° 1003.5 hPa 10.4 m/s 0.3 mm
19:00 9.7° 1005.3 hPa 12.1 m/s 0.7 mm 9.7° 1005.3 hPa 12.1 m/s 0.7 mm
22:00 6.9° 1008.9 hPa 13.6 m/s 0.0 mm 6.9° 1008.9 hPa 13.6 m/s 0.0 mm
 08:00     16:12    Daglengte: 8:12 Zondag 26 Nov
01:00 6.3° 1012.8 hPa 12.4 m/s 0.0 mm 6.3° 1012.8 hPa 12.4 m/s 0.1 mm
04:00 4.7° 1015.0 hPa 9.1 m/s 0.0 mm 4.7° 1014.9 hPa 9.1 m/s 0.1 mm
07:00 3.8° 1017.2 hPa 7.5 m/s 0.0 mm 3.8° 1017.2 hPa 7.5 m/s 0.1 mm
10:00 4.8° 1019.9 hPa 9.9 m/s 0.0 mm 4.8° 1019.9 hPa 9.9 m/s 0.0 mm
13:00 5.6° 1021.4 hPa 10.6 m/s 0.0 mm 5.6° 1021.4 hPa 10.6 m/s 0.0 mm
16:00 5.4° 1023.3 hPa 8.4 m/s 0.0 mm 5.4° 1023.3 hPa 8.4 m/s 0.1 mm
19:00 4.0° 1025.2 hPa 8.2 m/s 0.0 mm 4.0° 1025.2 hPa 8.2 m/s 0.1 mm
22:00 3.4° 1026.1 hPa 7.9 m/s 0.0 mm 3.4° 1026.1 hPa 7.9 m/s 0.0 mm
 08:01     16:11    Daglengte: 8:10 Maandag 27 Nov
01:00 2.8° 1026.2 hPa 7.6 m/s 0.0 mm 2.8° 1026.2 hPa 7.6 m/s 0.0 mm
04:00 2.3° 1026.0 hPa 6.8 m/s 0.0 mm 2.3° 1026.0 hPa 6.8 m/s 0.0 mm
07:00 1.9° 1026.5 hPa 5.9 m/s 0.0 mm 1.9° 1026.5 hPa 5.9 m/s 0.0 mm
10:00 3.3° 1026.4 hPa 6.2 m/s 0.0 mm 3.3° 1026.4 hPa 6.2 m/s 0.0 mm
13:00 5.9° 1024.8 hPa 5.2 m/s 0.0 mm 5.9° 1024.8 hPa 5.2 m/s 0.0 mm
16:00 3.8° 1023.0 hPa 2.8 m/s 0.0 mm 3.8° 1023.0 hPa 2.8 m/s 0.0 mm
19:00 2.2° 1021.4 hPa 2.4 m/s 0.0 mm 2.2° 1021.4 hPa 2.4 m/s 0.0 mm
22:00 1.6° 1018.8 hPa 3.4 m/s 0.0 mm 1.6° 1018.8 hPa 3.4 m/s 0.0 mm
 08:03     16:10    Daglengte: 8:07 Dinsdag 28 Nov
01:00 1.0° 1015.2 hPa 4.1 m/s 0.0 mm 1.0° 1015.2 hPa 4.1 m/s 0.0 mm
04:00 0.6° 1011.6 hPa 3.9 m/s 0.0 mm 0.6° 1011.6 hPa 3.9 m/s 0.0 mm
07:00 0.8° 1009.0 hPa 3.4 m/s 0.0 mm 0.8° 1009.0 hPa 3.4 m/s 0.0 mm
10:00 5.0° 1006.6 hPa 3.8 m/s 0.0 mm 5.0° 1006.6 hPa 3.8 m/s 0.0 mm
13:00 9.3° 1003.6 hPa 3.7 m/s 0.0 mm 9.3° 1003.6 hPa 3.7 m/s 0.0 mm
19:00 6.9° 1000.4 hPa 3.3 m/s 0.0 mm 6.9° 1000.4 hPa 3.3 m/s 0.0 mm
 08:04     16:10    Daglengte: 8:06 Woensdag 29 Nov
01:00 5.9° 999.0 hPa 2.8 m/s 0.3 mm 5.9° 999.0 hPa 2.8 m/s 0.3 mm
07:00 6.1° 998.7 hPa 3.7 m/s 0.3 mm 6.1° 998.7 hPa 3.7 m/s 0.3 mm
13:00 8.0° 999.9 hPa 5.0 m/s 0.0 mm 8.0° 999.9 hPa 5.0 m/s 0.0 mm
19:00 4.1° 1000.3 hPa 1.7 m/s 0.0 mm 4.1° 1000.3 hPa 1.7 m/s 0.0 mm
 08:06     16:09    Daglengte: 8:03 Donderdag 30 Nov
01:00 3.8° 999.8 hPa 2.5 m/s 0.0 mm 3.8° 999.8 hPa 2.5 m/s 0.0 mm
07:00 3.3° 998.6 hPa 2.8 m/s 0.0 mm 3.3° 998.6 hPa 2.8 m/s 0.0 mm
13:00 8.5° 997.6 hPa 1.5 m/s 0.0 mm 8.5° 997.6 hPa 1.5 m/s 0.0 mm
19:00 3.8° 998.5 hPa 2.0 m/s 0.0 mm 3.8° 998.5 hPa 2.0 m/s 0.0 mm
 08:07     16:08    Daglengte: 8:01 Vrijdag 01 Dec
01:00 2.4° 999.6 hPa 1.9 m/s 0.0 mm 2.4° 999.6 hPa 1.9 m/s 0.0 mm
07:00 1.5° 1011.8 hPa 1.1 m/s 0.8 mm
13:00 3.3° 1011.4 hPa 2.0 m/s 1.1 mm
19:00 2.1° 1011.3 hPa 2.1 m/s 0.9 mm
 08:09     16:08    Daglengte: 7:59 Zaterdag 02 Dec
01:00 1.8° 1010.7 hPa 3.1 m/s 1.2 mm
07:00 0.9° 1011.0 hPa 2.9 m/s 0.8 mm
13:00 3.1° 1010.5 hPa 3.9 m/s 0.6 mm
19:00 1.9° 1010.8 hPa 3.2 m/s 1.0 mm
 08:10     16:07    Daglengte: 7:57 Zondag 03 Dec
01:00 1.2° 1011.3 hPa 2.7 m/s 1.0 mm
07:00 0.9° 1011.5 hPa 2.4 m/s 0.8 mm
13:00 2.7° 1011.2 hPa 2.6 m/s 0.7 mm
19:00 1.5° 1011.1 hPa 2.9 m/s 0.7 mm
 08:11     16:07    Daglengte: 7:56 Maandag 04 Dec
01:00 0.9° 1011.3 hPa 3.2 m/s 0.4 mm
07:00 0.5° 1011.2 hPa 3.4 m/s 0.3 mm
13:00 2.3° 1011.3 hPa 3.4 m/s 0.3 mm
19:00 0.9° 1011.3 hPa 2.7 m/s 0.4 mm
 08:13     16:06    Daglengte: 7:53 Dinsdag 05 Dec
01:00 0.8° 1011.1 hPa 3.0 m/s 0.6 mm
07:00 0.9° 1010.8 hPa 3.2 m/s 0.7 mm
13:00 2.3° 1011.6 hPa 3.7 m/s 0.5 mm
19:00 0.7° 1012.7 hPa 2.6 m/s 0.8 mm
 08:14     16:06    Daglengte: 7:52 Woensdag 06 Dec
01:00 0.3° 1013.5 hPa 2.9 m/s 0.4 mm
07:00 0.2° 1013.8 hPa 3.2 m/s 0.6 mm
FMI Hirlam - 7.5 km EWN WRFDA - 12 km DWD ICON - 7 km GFS - 25 km Basiskaart






























































Updatetijd (Europe/Amsterdam) Resolutie Lengte Stap
FMI Hirlam 12:30, 18:30, 00:30, 06:30 7.5 km 49h 1h
EWN WRFDA 08:00, 14:00, 20:00, 02:00 12 km 73h 1h
DWD ICON 07:45, 13:45, 19:45, 01:45 7 km 75h 1h
GFS 08:30, 14:30, 20:30, 02:30 25 km 237h 3h
30+ mm
25-30 mm
20-25 mm
15-20 mm
10-15 mm
6-10 mm
4-6 mm
2-4 mm
1-2 mm
0.5-1 mm
0.2-0.5 mm
0.1-0.2 mm
30+ mm
25-30 mm
20-25 mm
15-20 mm
10-15 mm
6-10 mm
4-6 mm
2-4 mm
1-2 mm
0.5-1 mm
0.2-0.5 mm
0.1-0.2 mm
Sneeuwval
Natte sneeuw
Hagel
Vorst
30+ mm
25-30 mm
20-25 mm
15-20 mm
10-15 mm
6-10 mm
4-6 mm
2-4 mm
1-2 mm
0.5-1 mm
0.2-0.5 mm
0.1-0.2 mm
Sneeuwval
Natte sneeuw
Hagel
Vorst
Onweer
50 mm
40 mm
30 mm
26 mm
22 mm
18 mm
14 mm
10 mm
9 mm
8 mm
7 mm
6 mm
5 mm
4.5 mm
4 mm
3.5 mm
3 mm
2.5 mm
2 mm
1.5 mm
1 mm
0.8 mm
0.6 mm
0.4 mm
0.2 mm
0.05 mm
35°
30°
25°
20°
15°
10°
-5°
-10°
-15°
-20°
-25°
-30°
-35°
120> km/h
105 km/h
90 km/h
75 km/h
60 km/h
50 km/h
40 km/h
30 km/h
20 km/h
10 km/h
0 km/h
2600 J/kg
2400 J/kg
2200 J/kg
2000 J/kg
1800 J/kg
1600 J/kg
1400 J/kg
1200 J/kg
1000 J/kg
800 J/kg
600 J/kg
400 J/kg
200 J/kg
70 dBZ
65 dBZ
60 dBZ
55 dBZ
50 dBZ
45 dBZ
40 dBZ
35 dBZ
30 dBZ
25 dBZ
20 dBZ
15 dBZ
10 dBZ
5 dBZ
-1 K
-2 K
-3 K
-4 K
-5 K
-6 K
-7 K
-8 K
-9 K
950 m²/s²
900 m²/s²
850 m²/s²
800 m²/s²
750 m²/s²
700 m²/s²
650 m²/s²
600 m²/s²
550 m²/s²
500 m²/s²
450 m²/s²
400 m²/s²
350 m²/s²
300 m²/s²
250 m²/s²
200 m²/s²
150 m²/s²
100 m²/s²
46 m/s
44 m/s
42 m/s
40 m/s
38 m/s
36 m/s
34 m/s
32 m/s
30 m/s
28 m/s
26 m/s
24 m/s
22 m/s
20 m/s
16 m/s
12 m/s
8 m/s
4 m/s
30 m/s
28 m/s
26 m/s
24 m/s
22 m/s
20 m/s
18 m/s
16 m/s
14 m/s
12 m/s
10 m/s
8 m/s
6 m/s
4 m/s
2 m/s
3.0
2.8
2.6
2.4
2.2
2.0
1.8
1.6
1.4
1.2
1.0
0.8
0.6
0.4
0.2
15
14
13
12
11
10
9
8
7
6
5
4
3
2
1
90%
80%
70%
60%
50%
40%
30%
20%
10%
42
40
38
36
34
32
30
28
26
24
22
20
18
16
14
12
90+ cm
80-90 cm
70-80 cm
60-70 cm
50-60 cm
40-50 cm
30-40 cm
20-30 cm
10-20 cm
1-10 cm
Sneeuwval
Natte sneeuw
Regen
>120 mm
115 mm
110 mm
105 mm
100 mm
95 mm
90 mm
85 mm
80 mm
75 mm
70 mm
65 mm
60 mm
55 mm
50 mm
45 mm
45 mm
40 mm
35 mm
30 mm
25 mm
20 mm
15 mm
10 mm
5 mm
0.1 mm
960 hPa
880 hPa
800 hPa
720 hPa
640 hPa
560 hPa
584 gpdm
568 gpdm
552 gpdm
536 gpdm
520 gpdm
504 gpdm
488 gpdm
Extreem zwaar Noodweer Kans op onweer
15% 15% 5% 50% 15%

Dag




Kaart






35°
30°
25°
20°
15°
10°
-5°
-10°
-15°
-20°
-25°
-30°
-35°
120> km/h
105 km/h
90 km/h
75 km/h
60 km/h
50 km/h
40 km/h
30 km/h
20 km/h
10 km/h
0 km/h
Extreem zwaar Noodweer Kans op onweer
15% 15% 5% 50% 15%
>120 mm
115 mm
110 mm
105 mm
100 mm
95 mm
90 mm
85 mm
80 mm
75 mm
70 mm
65 mm
60 mm
55 mm
50 mm
45 mm
45 mm
40 mm
35 mm
30 mm
25 mm
20 mm
15 mm
10 mm
5 mm
0.1 mm
Onweer risico kaarten - De groene en gele kleur geeft de kans op onweer aan binnen 40 km van een punt. Oranje, rood en violet hebben hetzelfde niveau zoals je het ziet op estofex.org waaronder ook de kans op hagel en supercells.

dBZ - dBZ staat voor decibel ten opzichte van Z.

Cape - Convective available potential energy (CAPE), is de totale hoeveelheid energie die een luchtpakketje nodig heeft om zover mogelijk te stijgen in de atmosfeer.

K Index - K-Index wordt berekend door de Vertical Totals (VT) en het verschil tussen de 850 hPa temperatuur en de 700 hPa dauwpuntsdepressie (Tdd 700) bij elkaar op te tellen.

TT Index - Convectie index wordt gebruikt voor het voorspellen van zware buien of onweer.

WRF - The Weather Research and Forecasting (WRF) is een volgende generatie mesoscale numeriek weersvoorspelling systeem ontworpen om zowel de operationele planning als het atmosferisch onderzoek te dienen. WRF is a cooperatie tussen het National Center for Atmospheric Research (NCAR), National Centers for Environmental Prediction (NCEP), Forecast Systems Laboratory (FSL), Air Force Weather Agency (AFWA), Naval Research Laboratory, University of Oklahoma, en de Federal Aviation Administration (FAA). Deze software draait op onze server.

WRFDA - Een meer geavanceerde versie van WRF

Arome - Het 2.5 km Arome model. Verzorgd door het Noors Meteorologisch Instituut.

MET Norway - De proff-default 4km meteorological data is een beste keus selectie van meteorologische modellen gebruikt door met.no die zijn ge´nterpoleerd tot een gemeenschappelijke dataset. Verzorgd door het Noorse Meteorologisch Instituut.

SMHI - Het Hirlam model verzorgd door het Zweeds meteorologisch instituut.

FMI - Het Hirlam model verzorgd door het Fins meteorologisch instituut. Dekking alleen Finland.

GFS - Het Global Forecast Systeem (GFS) is een wereldwijd numerieke weersvoorspelling computermodel, gerund door NOAA.

GEM-GDPS - Het GEM-GDPS is a wereldwijd numeriek weersvoorspelling computermodel verzorgd door het Canadees Meteorologisch Centrum.

Credits/Info: Dank aan Stefan Gofferje van sääkeskus.fi voor enkele formules van GrADS. Info: Wikipedia.

Betrouwbaarheid van de verwachting

NB! 2015-03-29: Rebuilding the accuracy-test!

EWNACC
Day 1 Good forecasts

Dag 1 Tmax

Dag 2 Tmax

Geladen verwachtingen TOP 50

Totaal geladen verwachtingen:
Plaats Latitude Longitude Verwachtingen Plaats Latitude Longitude Verwachtingen